Location: Newark
(35.8833°N, 14.5000°E)
Time: 17:00:12
(UTC+00:00)

Altair - Pass Details

Date: 27 November 2019
Orbit: 1502 x 1682 km, 47.2° (Epoch: 05 December)

Event Time Altitude Azimuth Distance (km) Brightness Sun altitude
Rises 06:56:21 0° 301° (WNW) 4,645 9.4 10.8°
Reaches altitude 10° 06:59:27 10° 297° (WNW) 3,672 8.9 11.3°
Maximum altitude 07:08:14 50° 225° (SW) 1,883 8.1 12.7°
Drops below altitude 10° 07:17:18 10° 153° (SSE) 3,774 11.1 14.1°
Sets 07:20:33 0° 148° (SSE) 4,782 11.6 14.6°
